Cotulla, TX

1:24 AM CDT on September 23, 2017 (GMT -0500)
Cotulla-La Salle County

Weather History for KCOT - July, 2013

Change the Weather History Date:

Friday, July 26, 2013

  Actual Average Record
Temperature  
Mean Temperature 90 °F -  
Max Temperature 102 °F 97 °F 105 °F (2011)
Min Temperature 77 °F 72 °F 71 °F (2007)
Cooling Degree Days 24    
Growing Degree Days 40 (Base 50)    
Moisture  
Dew Point 70 °F    
Average Humidity 56    
Maximum Humidity 84    
Minimum Humidity 24    
Precipitation  
Precipitation 0.00 in - - ()
Sea Level Pressure  
Sea Level Pressure 29.93 in    
Wind  
Wind Speed 7 mph (SE)    
Max Wind Speed 14 mph    
Max Gust Speed 22 mph    
Visibility 10 miles    
Events      
Averages and records for this station are not official NWS values.
T = Trace of Precipitation, MM = Missing Value Source: NWS Daily Summary

Daily Weather History Graph

Daily Weather History Graph

Search for Another Location

Airport or City:

Trip Planner

Search our weather history database for the weather conditions in past years. The results will help you decide how hot, cold, wet, or windy it might be!

Date:

Astronomy

Jul. 26, 2013 Rise Set
Actual Time 6:55 AM CDT 8:31 PM CDT
Civil Twilight 6:29 AM CDT 8:56 PM CDT
Nautical Twilight 5:58 AM CDT 9:27 PM CDT
Astronomical Twilight 5:26 AM CDT 9:59 PM CDT
Moon 11:16 PM CDT (7/26) 11:05 AM CDT (7/26)
Length of Visible Light 14h 27m
Length of Day
13h 35m
Waning Gibbous, 80% of the Moon is Illuminated
Jul 26
Waning Gibbous
Jul 29
Last Quarter
Aug 6
New
Aug 14
First Quarter
Aug 20
Full

Hourly Weather History & Observations

Time (CDT) Temp. Heat Index Dew Point Humidity Pressure Visibility Wind Dir Wind Speed Gust Speed Precip Events Conditions
12:53 AM 84.0 °F 88.4 °F 70.0 °F 63% 29.97 in 10.0 mi SE 6.9 mph - N/A   Clear
1:53 AM 82.9 °F 88.0 °F 72.0 °F 69% 29.98 in 10.0 mi SE 8.1 mph - N/A   Clear
2:53 AM 82.0 °F 87.4 °F 73.0 °F 74% 29.97 in 10.0 mi SE 6.9 mph - N/A   Clear
3:53 AM 80.1 °F 84.2 °F 73.0 °F 79% 29.96 in 10.0 mi SE 5.8 mph - N/A   Clear
4:53 AM 79.0 °F - 72.0 °F 79% 29.95 in 10.0 mi SE 5.8 mph - N/A   Clear
5:53 AM 78.1 °F - 72.0 °F 81% 29.96 in 10.0 mi SE 5.8 mph - N/A   Clear
6:53 AM 77.0 °F - 72.0 °F 84% 29.97 in 10.0 mi ESE 6.9 mph - N/A   Clear
7:53 AM 78.1 °F - 72.0 °F 81% 29.97 in 10.0 mi ESE 5.8 mph - N/A   Clear
8:53 AM 82.0 °F 87.4 °F 73.0 °F 74% 29.98 in 10.0 mi SSE 8.1 mph - N/A   Clear
9:53 AM 84.9 °F 92.1 °F 73.9 °F 69% 29.99 in 10.0 mi South 6.9 mph - N/A   Clear
10:53 AM 89.1 °F 97.0 °F 73.0 °F 59% 29.98 in 10.0 mi Variable 3.5 mph - N/A   Clear
11:53 AM 91.9 °F 100.7 °F 73.0 °F 54% 29.98 in 10.0 mi Variable 4.6 mph - N/A   Clear
12:53 PM 97.0 °F 105.5 °F 72.0 °F 44% 29.96 in 10.0 mi Variable 6.9 mph - N/A   Clear
1:53 PM 99.0 °F 106.2 °F 70.0 °F 39% 29.93 in 10.0 mi South 6.9 mph - N/A   Clear
2:53 PM 99.0 °F 103.5 °F 66.9 °F 35% 29.91 in 10.0 mi Calm Calm - N/A   Partly Cloudy
3:53 PM 102.0 °F 107.3 °F 66.9 °F 32% 29.88 in 10.0 mi SSE 6.9 mph - N/A   Scattered Clouds
4:53 PM 102.0 °F 104.6 °F 63.0 °F 28% 29.86 in 10.0 mi South 6.9 mph - N/A   Clear
5:53 PM 102.9 °F 104.2 °F 61.0 °F 25% 29.84 in 10.0 mi SSE 10.4 mph 17.3 mph N/A   Clear
6:53 PM 102.0 °F 102.7 °F 60.1 °F 25% 29.83 in 10.0 mi SSE 5.8 mph - N/A   Clear
7:53 PM 100.9 °F 100.5 °F 57.9 °F 24% 29.82 in 10.0 mi SSE 4.6 mph - N/A   Clear
8:53 PM 96.1 °F 102.9 °F 70.0 °F 43% 29.85 in 10.0 mi SE 13.8 mph 20.7 mph N/A   Clear
9:53 PM 90.0 °F 96.9 °F 72.0 °F 55% 29.88 in 10.0 mi SE 13.8 mph 21.9 mph N/A   Clear
10:53 PM 88.0 °F 94.7 °F 72.0 °F 59% 29.89 in 10.0 mi SE 11.5 mph 17.3 mph N/A   Clear
11:53 PM 87.1 °F 93.6 °F 72.0 °F 61% 29.91 in 10.0 mi SE 10.4 mph - N/A   Clear